Location: Barcelona
(41.3830°N, 2.1830°E)
Time: 20:31:21
(UTC+01:00)

ISS - Pass Details

Date: 03 March 2021
Orbit: 417 x 422 km, 51.6° (Epoch: 26 February)

Event Time Altitude Azimuth Distance (km) Brightness Sun altitude
Exits shadow 04:55:25 12° 26° (NNE) 1,398 -0.6 -28.2°
Drops below altitude 10° 04:55:49 10° 31° (NNE) 1,498 -0.4 -28.1°
Sets 04:58:26 0° 52° (NE) 2,364 1.1 -27.6°
